Hourly Data Report for November 06, 2019

All times are specified in Local Standard Time (LST). Add 1 hour to adjust for Daylight Saving Time where and when it is observed.

QUALICUM BEACH AIRPORT
BRITISH COLUMBIA
Current Station Operator: ECCC - MSC

49°20'14.000" N
124°23'38.000" W
58.20 m
1026562
71766
VOQ

Download Data

Hourly Data (November 2019)
Hourly Data Report for November 6, 2019
TIME Temp Definition
°C
Dew Point Definition
°C
Rel Hum Definition
%
Wind Dir Definition
10's deg

Wind Spd Definition
km/h
Visibility Definition
km
Stn Press Definition
kPa
Hmdx Definition


Wind Chill Definition


Weather Definition


00:00 9.1 6.9 87 30 2   101.77     LegendNANA
01:00 9.3 6.8 84 29 4   101.80     LegendNANA
02:00 9.2 7.0 86 30 8   101.83     LegendNANA
03:00 9.1 7.0 87 28 5   101.87     LegendNANA
04:00 8.8 6.0 83 32 6   101.88     LegendNANA
05:00 8.7 5.9 83 32 7   101.91     LegendNANA
06:00 8.4 5.7 83 31 9   101.92     LegendNANA
07:00 8.1 5.7 85 30 7   101.94     LegendNANA
08:00 8.1 5.7 85 33 7   102.00     LegendNANA
09:00 7.9 5.5 85 27 7   102.03     LegendNANA
10:00 8.0 5.5 85 28 4   102.00     LegendNANA
11:00 8.2 5.5 84 33 5   102.02     LegendNANA
12:00 8.3 5.4 82 33 7   102.00     LegendNANA
13:00 9.0 5.5 79 34 11   101.98     LegendNANA
14:00 8.8 5.8 81 32 6   101.90     LegendNANA
15:00 8.2 5.9 86 31 9   101.91     LegendNANA
16:00 8.1 6.1 87 30 5   101.92     LegendNANA
17:00 7.3 6.0 91 26 2   101.87     LegendNANA
18:00 5.9 4.9 94 28 2   101.87     LegendNANA
19:00 5.4 4.7 95 27 2   101.88     LegendNANA
20:00 4.7 4.1 96 24 1   101.83     LegendNANA
21:00 4.5 3.9 96   0   101.84     LegendNANA
22:00 4.4 4.0 97 26 2   101.82     LegendNANA
23:00 4.4 3.9 97 26 1   101.86     LegendNANA

Notes on Data Quality.

Legend

  • E = Estimated
  • M = Missing
  • NA = Not Available
Date modified: